Volver al catálogo

LEMUR 2 HUBBLE-5

ActivoCienciaSSO
NORAD 64840·PAYLOAD·🇺🇸 United States

Lanzado Jun 23, 2025 desde Vandenberg Space Force Base

Loading…

Próximos Pases (próximas 24 horas)

TLE

ActualizadoSource: Space-Track

Época: Sep 14, 2026, 13:19 UTC

1 64840U 25135BT  26257.55503607  .00000978  00000-0  96272-4 0  9995
2 64840  97.7789  11.2049 0006556  51.6196 308.5612 14.94362227 67253

Sigue LEMUR 2 HUBBLE-5 en tiempo real con AllMySat

Download on the App Store